This demonstration page uses our WeatherBlox Daily Observations layout. Learn more.

Hourly Observations for September 19, 2019

Temp ( °F °C ) Dew Point ( °F °C ) Humidity (%) Winds ( mph kmh ) Pressure ( in mb ) Visibility ( mi km ) Precip ( " mm )
12:53 am 00:53 Clear 55 12.8 49 9.4 80 80 E 7 11 29.88 1012 10 16.09344 0 0
1:53 am 01:53 Clear 55 12.8 49 9.4 80 80 ENE 7 11 29.85 1011 10 16.09344 0 0
2:53 am 02:53 Clear 54 12.2 48 8.9 80 80 E 7 11 29.85 1011 10 16.09344 0 0
3:53 am 03:53 Clear 54 12.2 48 8.9 80 80 ENE 3 6 29.85 1011 10 16.09344 0 0
4:53 am 04:53 Clear 52 11.1 48 8.9 86 86 undefined N/A 29.85 1011 10 16.09344 0 0
5:53 am 05:53 Clear 52 11.1 49 9.4 89 89 E 3 6 29.85 1011 10 16.09344 0 0
6:53 am 06:53 Sunny 51 10.6 49 9.4 92 92 Calm 29.88 1012 10 16.09344 0 0
7:53 am 07:53 Sunny 56 13.3 51 10.6 84 84 SSE 3 6 29.88 1012 10 16.09344 0 0
8:53 am 08:53 Sunny 62 16.7 53 11.7 73 73 SE 7 11 29.88 1012 10 16.09344 0 0
9:53 am 09:53 Sunny 69 20.6 54 12.2 59 59 SE 9 15 29.85 1011 10 16.09344 0 0
10:53 am 10:53 Sunny 73 22.8 55 12.8 53 53 ESE 12 19 29.85 1011 10 16.09344 0 0
11:53 am 11:53 Sunny 78 25.6 58 14.4 50 50 ESE 12 19 29.83 1010 10 16.09344 0 0
12:53 pm 12:53 Sunny 83 28.3 60 15.6 46 46 SE 14 22 29.8 1009 10 16.09344 0 0
1:53 pm 13:53 Sunny 85 29.4 60 15.6 43 43 ESE 15 24 29.77 1008 10 16.09344 0 0
2:53 pm 14:53 Sunny 85 29.4 60 15.6 43 43 ESE 17 28 29.74 1007 10 16.09344 0 0
3:53 pm 15:53 Sunny 85 29.4 60 15.6 43 43 ESE 17 28 29.71 1006 10 16.09344 0 0
4:53 pm 16:53 Sunny 84 28.9 61 16.1 46 46 ESE 15 24 29.71 1006 10 16.09344 0 0
5:53 pm 17:53 Sunny 83 28.3 60 15.6 46 46 E 9 15 29.68 1005 10 16.09344 0 0
6:53 pm 18:53 Sunny 75 23.9 58 14.4 55 55 ESE 8 13 29.71 1006 7 11.265408 0 0
7:53 pm 19:53 Clear 69 20.6 58 14.4 68 68 E 7 11 29.71 1006 10 16.09344 0 0
8:53 pm 20:53 Clear 67 19.4 58 14.4 73 73 E 7 11 29.71 1006 10 16.09344 0 0
9:53 pm 21:53 Clear 71 21.7 60 15.6 68 68 ESE 24 39 29.71 1006 9 14.484096 0 0
10:53 pm 22:53 Clear 70 21.1 59 15 68 68 SE 22 35 29.74 1007 10 16.09344 0 0
11:53 pm 23:53 Mostly Clear 69 20.6 58 14.4 68 68 SE 22 35 29.74 1007 10 16.09344 0.001 0.001

Powered by AerisWeather